Location: Shepherdstown, WV
(39.4326°N, 77.8042°W)
Time: 01:23:54
(UTC-04:00)

S-56A Canister/Altair - Pass Details

Date: 05 August 2021
Orbit: 632 x 2500 km, 38.9° (Epoch: 27 September)

Event Time Altitude Azimuth Distance (km) Brightness Sun altitude
Rises 21:01:35 0° 289° (WNW) 6,138 14.2 -8.2°
Reaches altitude 10° 21:05:56 10° 282° (WNW) 5,166 13.1 -9.0°
Maximum altitude 21:19:11 39° 222° (SW) 3,146 10.7 -11.1°
Drops below altitude 10° 21:30:23 10° 158° (SSE) 4,353 10.9 -12.9°
Enters shadow 21:31:09 - 157° (SSE) 4,519 10.9 -13.1°
